Regional Weather Roundup
Issued by NWS Cleveland, OH

Home | Current Version | Previous Version | Graphics & Text | Print | Product List | Glossary On
Versions: 1 2 3 4 5 6 7 8 9 10 11 12 13 14 15 16 17 18 19 20 21 22 23 24 25 26 27 28 29 30 31 32 33 34 35 36 37 38 39 40 41 42 43 44 45 46 47 48 49 50
000
ASUS41 KCLE 170602
RWRCLE
OHIO REGIONAL WEATHER ROUNDUP
NATIONAL WEATHER SERVICE CLEVELAND, OH
200 AM EDT THU APR 17 2014

NOTE: "FAIR" INDICATES FEW OR NO CLOUDS BELOW 12,000 FEET WITH NO
SIGNIFICANT WEATHER AND/OR OBSTRUCTIONS TO VISIBILITY.

OHZ001>008-015>018-024>027-034-035-043-044-170700-
   NORTHWEST OHIO

CITY           SKY/WX    TMP DP  RH WIND       PRES   REMARKS
DEFIANCE       FAIR      33  27  78 E8        30.31F WCI  26
FINDLAY        FAIR      35  25  66 E7        30.30F WCI  29
TOLEDO EXPRESS FAIR      35  29  78 E9        30.33F WCI  28
TOLEDO EXEC    FAIR      34  28  79 E7        30.35F WCI  28
LIMA           FAIR      36  25  64 E8        30.29F
$$

OHZ009>014-019>023-028>033-038-089-170700-
   NORTHEAST OHIO

CITY           SKY/WX    TMP DP  RH WIND       PRES   REMARKS
CLE-HOPKINS    FAIR      40  17  39 E9        30.39F
CLE-LAKEFRONT  FAIR      36  24  62 E5        30.37F
CUY CO. ARPT   NOT AVBL
LORAIN-ELYRIA  FAIR      37  21  52 SE6       30.36F
ASHTABULA      FAIR      30  21  69 E6        30.41F WCI  24
AKRON-CANTON   FAIR      36  16  44 E5        30.36S
WOOSTER        FAIR      33  21  61 E8        30.35F WCI  26
MANSFIELD      FAIR      35  19  52 E9        30.32F WCI  28
YOUNGSTOWN     MOCLDY    35  17  47 SE12      30.39S WCI  27
$$

OHZ042-051>053-060>062-070>072-077>081-170700-
  SOUTHWEST OHIO

CITY           SKY/WX    TMP DP  RH WIND       PRES   REMARKS
CINC-COVINGTON MOCLDY    40  23  50 SE7       30.26S
CINC-LUNKEN    FAIR      32  29  88 CALM      30.29F
HAMILTON       FAIR      37  27  67 E3        30.29S
DAYTON         FAIR      40  23  50 E12       30.28F
WRIGHT-PAT AFB FAIR      38  22  50 E6        30.29F
DAYTON GENERAL FAIR      39  23  52 E7        30.27S
WILMINGTON     FAIR      36  24  62 E8        30.28F
$$

OHZ036-037-039>041-045>050-054>059-063>069-073>076-082>088-170700-
  CENTRAL AND SOUTHEAST OHIO

CITY           SKY/WX    TMP DP  RH WIND       PRES   REMARKS
COLUMBUS       FAIR      40  19  43 E8        30.32S
OSU AIRPORT    FAIR      38  19  46 E8        30.31F
BOLTON FIELD   NOT AVBL
RICKENBACK AFB NOT AVBL
NEWARK         FAIR      36  19  50 NE3       30.33S
MARION         FAIR      35  20  54 SE8       30.32F WCI  29
LANCASTER      FAIR      35  21  56 E6        30.32F
ZANESVILLE     FAIR      36  18  48 E5        30.34S
NEW PHILLY     FAIR      36  18  48 SE8       30.37F
$$



USA.gov is the U.S. government's official web portal to all federal, state and local government web resources and services.